Location: Cuzcurrita-R�o Tir�n
(42.5415°N, 2.9642°W)
Time: 01:28:40
(UTC+00:00)

KORONAS-FOTON - Pass Details

Date: 17 January 2021
Orbit: 504 x 532 km, 82.4° (Epoch: 08 March)

Event Time Altitude Azimuth Distance (km) Brightness Sun altitude
Rises 17:29:45 0° 191° (S) 2,647 7.9 -4.7°
Reaches altitude 10° 17:31:53 10° 193° (SSW) 1,767 7.1 -5.0°
Maximum altitude 17:35:46 74° 279° (W) 558 4.1 -5.7°
Drops below altitude 10° 17:39:42 10° 4° (N) 1,792 6.3 -6.4°
Sets 17:41:52 0° 7° (N) 2,689 7.1 -6.7°
